This demonstration page uses our WeatherBlox Daily Observations layout. Learn more.

Left ArrowRight Arrow

Hourly Observations for August 10, 2015

Temp ( °F °C ) Dew Point ( °F °C ) Humidity (%) Winds ( mph kmh ) Pressure ( in mb ) Visibility ( mi km ) Precip ( " mm )
12:31 am 00:31 Partly Cloudy 79 26 70 21 74 74 NNW 12 19 29.88 1012 10 16.0934 0 0
12:54 am 00:54 Mostly Clear 77 25 70 21.1 79 79 N 7 11 29.91 1013 10 16.0934 0 0
1:49 am 01:49 Mostly Cloudy 75 24 72 22 89 89 NNW 10 17 29.91 1013 8 12.87472 0 0
1:54 am 01:54 Mostly Cloudy 76 24.4 72 22.2 88 88 NNW 8 13 29.93 1013 8 12.87472 0 0
2:05 am 02:05 Cloudy 75 23.9 72 22.2 90 90 N 8 13 29.91 1013 8 12.87472 0 0
2:25 am 02:25 Partly Cloudy 73 23 72 22 94 94 NNE 3 6 29.88 1012 7 11.26538 0 0
2:54 am 02:54 Clear 72 22.2 70 21.1 94 94 N 7 11 29.91 1013 8 12.87472 0 0
3:54 am 03:54 Clear 71 21.7 68 20 90 90 N 13 20 29.93 1013 9 14.48406 0 0
4:54 am 04:54 Clear 69 20.6 66 18.9 90 90 NNW 9 15 29.94 1014 10 16.0934 0 0
5:54 am 05:54 Clear 67 19.4 65 18.3 93 93 N 8 13 29.94 1014 10 16.0934 0 0
6:54 am 06:54 Mostly Sunny 68 20 64 17.8 87 87 NNW 12 19 29.97 1015 10 16.0934 0 0
7:54 am 07:54 Sunny 69 20.6 65 18.3 87 87 N 10 17 30 1016 9 14.48406 0 0
8:19 am 08:19 Mostly Sunny 70 21.1 65 18.3 84 84 N 5 7 30.03 1017 10 16.0934 0 0
8:37 am 08:37 Partly Cloudy 71 21.7 65 18.3 81 81 NNE 7 11 30.03 1017 10 16.0934 0 0
8:46 am 08:46 Mostly Cloudy 72 22 64 18 78 78 N 7 11 30.03 1017 10 16.0934 0 0
8:54 am 08:54 Mostly Cloudy 71 21.7 65 18.3 81 81 N 9 15 30.03 1017 10 16.0934 0 0
9:54 am 09:54 Partly Cloudy 74 23.3 65 18.3 74 74 NNE 9 15 30.05 1018 8 12.87472 0 0
10:54 am 10:54 Sunny 77 25 66 18.9 69 69 undefined N/A 30.06 1018 9 14.48406 0 0
11:54 am 11:54 Mostly Sunny 80 26.7 66 18.9 62 62 NNE 13 20 30.06 1018 10 16.0934 0 0
12:54 pm 12:54 Mostly Sunny 83 28.3 66 18.9 57 57 N 14 22 30.06 1018 10 16.0934 0 0
1:54 pm 13:54 Partly Cloudy 83 28.3 67 19.4 59 59 N 14 22 30.06 1018 10 16.0934 0 0
2:54 pm 14:54 Partly Cloudy 83 28.3 66 18.9 57 57 N 15 24 30.05 1018 10 16.0934 0 0
3:54 pm 15:54 Partly Cloudy 84 28.9 64 17.8 51 51 N 17 28 30.04 1017 10 16.0934 0 0
4:54 pm 16:54 Sunny 84 28.9 62 16.7 48 48 N 14 22 30.03 1017 10 16.0934 0 0
5:54 pm 17:54 Sunny 83 28.3 64 17.8 53 53 N 14 22 30.03 1017 10 16.0934 0 0
6:54 pm 18:54 Mostly Sunny 81 27.2 62 16.7 53 53 N 14 22 30.04 1017 10 16.0934 0 0
7:54 pm 19:54 Sunny 78 25.6 61 16.1 56 56 N 12 19 30.05 1018 10 16.0934 0 0
8:54 pm 20:54 Clear 73 22.8 62 16.7 69 69 N 9 15 30.07 1018 10 16.0934 0 0
9:54 pm 21:54 Clear 69 20.6 63 17.2 81 81 N 7 11 30.09 1019 10 16.0934 0 0
10:54 pm 22:54 Clear 66 18.9 63 17.2 90 90 NNW 6 9 30.11 1020 10 16.0934 0 0
11:54 pm 23:54 Clear 66 18.9 61 16.1 84 84 N 6 9 30.12 1020 10 16.0934 0 0

Powered by AerisWeather